This is the latest recevied weather packets stored in our database for station/object AE5HO. If no packets are shown the sender has not sent any weather packets the latest 10 day(s).
| Time | Temp. | Humidity | Pressure | Rain* | Wind** | Luminosity | Snow |
|---|---|---|---|---|---|---|---|
| 1787441773 | 40.56° C | 36% | 1013.8 hPa | 0 mm | - | 40 W/m² | - |
| 1787441473 | 40° C | 37% | 1013.8 hPa | 0 mm | - | 65 W/m² | - |
| 1787441168 | 40° C | 35% | 1013.8 hPa | 0 mm | - | 42 W/m² | - |
| 1787440864 | 40° C | 36% | 1013.7 hPa | 0 mm | - | 42 W/m² | - |
| 1787440563 | 40° C | 35% | 1013.8 hPa | 0 mm | - | 45 W/m² | - |
| 1787440260 | 40° C | 36% | 1013.8 hPa | 0 mm | - | 40 W/m² | - |
| 1787439956 | 40° C | 37% | 1013.7 hPa | 0 mm | - | 39 W/m² | - |
| 1787439652 | 40° C | 37% | 1013.9 hPa | 0 mm | - | 38 W/m² | - |
| 1787439348 | 40° C | 36% | 1014 hPa | 0 mm | - | 45 W/m² | - |
| 1787439043 | 40° C | 36% | 1013.7 hPa | 0 mm | - | 42 W/m² | - |
| 1787438738 | 40° C | 36% | 1013.8 hPa | 0 mm | - | 42 W/m² | - |
| 1787438437 | 40° C | 36% | 1013.6 hPa | 0 mm | - | 42 W/m² | - |
| 1787438132 | 40° C | 38% | 1013.8 hPa | 0 mm | - | 43 W/m² | - |
| 1787437827 | 39.44° C | 37% | 1013.8 hPa | 0 mm | - | 65 W/m² | - |
| 1787437524 | 39.44° C | 38% | 1013.8 hPa | 0 mm | - | 44 W/m² | - |
| 1787437220 | 38.89° C | 39% | 1014 hPa | 0 mm | - | 44 W/m² | - |
| 1787436916 | 38.89° C | 40% | 1014 hPa | 0 mm | - | 44 W/m² | - |
| 1787436613 | 38.89° C | 40% | 1013.9 hPa | 0 mm | - | 50 W/m² | - |
| 1787436313 | 38.89° C | 40% | 1014.1 hPa | 0 mm | - | 55 W/m² | - |
| 1787436008 | 38.89° C | 41% | 1014.1 hPa | 0 mm | - | 64 W/m² | - |
| 1787435703 | 39.44° C | 40% | 1014.4 hPa | 0 mm | - | 76 W/m² | - |
| 1787435399 | 39.44° C | 40% | 1014.2 hPa | 0 mm | - | 86 W/m² | - |
| 1787435095 | 38.89° C | 41% | 1014.4 hPa | 0 mm | - | 98 W/m² | - |
| 1787434790 | 38.33° C | 44% | 1014.3 hPa | 0 mm | - | 89 W/m² | - |
| 1787434488 | 38.33° C | 43% | 1014.7 hPa | 0 mm | - | 102 W/m² | - |
* Rain latest hour (hover to see other rain measurements)
** Current wind speed in m/s (hover to see current wind gust speed)